FW3877 Weather Reports


time (UTC)temp
C
wind
direction
speed
KPH
gust
KPH
rain 1hr
cm
rain 24hr
cm
rain mn
cm
humidity
%
barometer
mb
20260904195704 12 249 8.0 14.5 0.00 0.91 0.30 92 1016.5
20260904195204 12 246 9.7 14.5 0.00 0.91 0.30 92 1016.4
20260904194704 12 252 9.7 19.3 0.00 0.91 0.30 92 1016.2
20260904193704 12 260 11.3 19.3 0.00 0.91 0.30 92 1016.0
20260904192704 12 243 8.0 12.9 0.00 0.91 0.30 92 1016.0
20260904192203 12 252 6.4 11.3 0.00 0.91 0.30 91 1015.9
20260904191204 12 255 9.7 14.5 0.00 0.91 0.30 92 1015.8
20260904190704 12 251 9.7 19.3 0.00 0.91 0.30 92 1015.6
20260904190204 12 251 9.7 19.3 0.00 0.91 0.30 92 1015.7
20260904185703 12 248 11.3 19.3 0.00 0.91 0.30 91 1015.5
20260904185204 12 253 8.0 14.5 0.00 0.91 0.30 91 1015.5
20260904184704 13 255 8.0 19.3 0.00 0.91 0.30 91 1015.4
20260904184204 13 265 11.3 22.5 0.00 0.91 0.30 91 1015.4
20260904183204 13 239 9.7 19.3 0.00 0.94 0.30 91 1015.2
20260904182704 13 258 12.9 19.3 0.00 0.94 0.30 91 1015.3
20260904182204 13 241 12.9 22.5 0.00 0.94 0.30 91 1015.3
20260904181704 13 254 14.5 22.5 0.00 0.94 0.30 91 1015.3
20260904181204 13 261 11.3 24.1 0.00 0.94 0.30 90 1015.3
20260904180204 13 258 11.3 19.3 0.00 0.94 0.30 90 1015.2
20260904175704 13 268 12.9 19.3 0.00 0.94 0.30 90 1015.2
20260904175204 13 271 9.7 25.7 0.00 0.97 0.30 89 1015.2
20260904174704 13 262 16.1 25.7 0.00 0.97 0.30 89 1015.0
20260904174203 13 268 9.7 19.3 0.00 0.97 0.30 88 1015.1
20260904173704 13 276 14.5 32.2 0.00 0.97 0.30 87 1015.0
20260904173205 14 270 17.7 33.8 0.00 0.99 0.30 85 1014.9
20260904172704 14 266 14.5 24.1 0.00 0.99 0.30 85 1014.8
20260904172204 15 258 9.7 27.4 0.00 0.99 0.30 84 1014.6
20260904171704 15 284 11.3 29.0 0.00 0.99 0.30 84 1014.6
20260904171204 15 266 11.3 27.4 0.00 0.99 0.30 84 1014.5
20260904170204 15 262 14.5 25.7 0.00 1.04 0.30 84 1014.4
20260904165704 15 259 16.1 24.1 0.00 1.04 0.30 84 1014.3
20260904165203 15 277 16.1 27.4 0.00 1.07 0.30 84 1014.2
20260904164705 15 279 11.3 24.1 0.00 1.07 0.30 85 1014.1
20260904164203 15 255 14.5 24.1 0.00 1.09 0.30 84 1014.0
20260904163704 15 265 12.9 25.7 0.00 1.09 0.30 84 1014.0
20260904163204 15 254 16.1 32.2 0.00 1.09 0.30 85 1014.0
20260904162704 15 263 11.3 19.3 0.00 1.12 0.30 85 1013.8
20260904162204 15 271 12.9 27.4 0.00 1.14 0.30 84 1013.8
20260904161705 15 264 17.7 32.2 0.00 1.17 0.30 84 1013.7
20260904161204 15 268 20.9 35.4 0.00 1.17 0.30 85 1013.7
20260904160203 15 267 16.1 29.0 0.00 1.22 0.30 84 1013.5
20260904155704 15 265 12.9 27.4 0.00 1.22 0.30 85 1013.6
20260904155204 15 264 16.1 29.0 0.00 1.27 0.30 85 1013.4
20260904154703 15 272 20.9 38.6 0.00 1.27 0.30 86 1013.4
20260904154204 15 264 11.3 20.9 0.00 1.30 0.30 87 1013.4
20260904153704 15 256 12.9 25.7 0.00 1.30 0.30 87 1013.4
20260904152704 15 267 12.9 25.7 0.00 1.30 0.30 87 1013.4
20260904152204 15 262 11.3 27.4 0.00 1.30 0.30 86 1013.4
20260904150704 15 263 22.5 38.6 0.05 1.30 0.30 86 1013.2
20260904150203 15 261 16.1 29.0 0.05 1.30 0.30 87 1013.3
20260904145204 15 276 16.1 32.2 0.05 1.30 0.30 88 1013.3
20260904144704 15 250 14.5 25.7 0.05 1.30 0.30 88 1013.2
20260904144204 15 250 16.1 25.7 0.05 1.30 0.30 89 1013.1
20260904143704 15 266 19.3 32.2 0.05 1.30 0.30 89 1013.1
20260904143204 15 251 17.7 32.2 0.05 1.32 0.30 91 1012.9
20260904142704 14 257 9.7 24.1 0.05 1.32 0.30 90 1013.0
20260904142204 14 253 16.1 29.0 0.05 1.32 0.30 90 1012.9
20260904141704 14 260 16.1 25.7 0.05 1.32 0.30 89 1012.9
20260904141203 14 270 19.3 41.8 0.05 1.35 0.30 88 1012.9
20260904140704 15 259 14.5 24.1 0.00 1.30 0.25 87 1012.7
20260904135704 15 250 20.9 35.4 0.00 1.30 0.25 87 1012.6
20260904134704 14 257 16.1 32.2 0.00 1.30 0.25 88 1012.7
20260904133703 14 271 16.1 32.2 0.00 1.30 0.25 86 1012.6
20260904131703 16 280 19.3 33.8 0.00 1.32 0.25 85 1012.2
20260904131204 15 264 17.7 32.2 0.03 1.32 0.25 85 1012.0
20260904130704 16 272 17.7 32.2 0.05 1.32 0.25 86 1012.1
20260904130204 16 254 16.1 41.8 0.05 1.32 0.25 85 1012.0
20260904125704 16 283 17.7 37.0 0.05 1.32 0.25 85 1012.0
20260904125204 16 269 24.1 37.0 0.05 1.32 0.25 87 1011.8
20260904124703 16 256 22.5 27.4 0.05 1.32 0.25 88 1011.7
20260904122703 15 264 9.7 24.1 0.15 1.35 0.25 91 1011.8
20260904121204 13 260 12.9 32.2 0.18 1.35 0.25 89 1011.7
20260904120704 15 263 12.9 19.3 0.15 1.27 0.20 90 1011.6
20260904120204 14 277 11.3 22.5 0.15 1.27 0.20 91 1011.4
20260904115703 14 267 9.7 20.9 0.15 1.27 0.20 91 1011.4
20260904115204 13 280 9.7 20.9 0.15 1.27 0.20 90 1011.5
20260904114704 13 288 14.5 27.4 0.15 1.27 0.20 90 1011.4
20260904114204 13 279 14.5 32.2 0.18 1.27 0.20 89 1011.5
20260904113704 14 280 16.1 29.0 0.15 1.24 0.15 90 1011.5
20260904113204 14 280 9.7 20.9 0.10 1.19 0.13 89 1011.3
20260904112704 14 273 9.7 19.3 0.10 1.19 0.13 89 1011.2
20260904112204 14 264 9.7 20.9 0.05 1.17 0.08 88 1011.1
20260904111704 14 278 11.3 22.5 0.05 1.17 0.08 86 1011.0
20260904111204 15 296 14.5 29.0 0.05 1.17 0.08 84 1011.1
20260904110704 15 268 14.5 27.4 0.03 1.12 0.05 84 1010.8
20260904110203 16 265 14.5 25.7 0.03 1.12 0.05 85 1010.6
20260904105704 15 269 14.5 27.4 0.03 1.12 0.05 86 1010.7
20260904105204 15 272 14.5 24.1 0.03 1.12 0.05 86 1010.6
20260904104704 15 259 8.0 25.7 0.03 1.12 0.05 83 1010.6
20260904104204 16 263 19.3 41.8 0.00 1.09 0.03 81 1010.5
20260904103703 16 289 14.5 25.7 0.00 1.09 0.03 83 1010.4
20260904103204 15 278 14.5 24.1 0.00 1.09 0.03 83 1010.4
20260904102704 15 265 11.3 25.7 0.00 1.09 0.03 83 1010.4
20260904102204 15 266 14.5 32.2 0.00 1.09 0.03 83 1010.4
20260904101704 15 285 19.3 29.0 0.00 1.09 0.03 83 1010.4
20260904101204 15 262 16.1 29.0 0.00 1.09 0.03 84 1010.3
20260904100704 15 264 14.5 27.4 0.00 1.09 0.03 84 1010.3
20260904100204 15 257 9.7 24.1 0.00 1.09 0.03 85 1010.2
20260904095703 15 276 12.9 22.5 0.00 1.09 0.03 86 1010.1
20260904095204 15 252 14.5 29.0 0.00 1.09 0.03 85 1010.0
20260904094703 15 268 14.5 24.1 0.00 1.09 0.03 86 1009.9
20260904094204 15 243 9.7 20.9 0.00 1.09 0.03 86 1010.0
20260904093704 15 259 16.1 32.2 0.00 1.09 0.03 86 1009.8
20260904092204 15 268 12.9 32.2 0.00 1.09 0.03 89 1009.5
20260904091704 14 272 11.3 27.4 0.00 1.12 0.03 89 1009.5
20260904091203 14 267 14.5 22.5 0.00 1.12 0.03 89 1009.4
20260904090704 14 265 14.5 25.7 0.00 1.14 0.03 90 1009.4
20260904090204 14 277 16.1 25.7 0.00 1.14 0.03 90 1009.3
20260904085704 14 255 11.3 25.7 0.00 1.14 0.03 91 1009.3
20260904084204 13 267 16.1 27.4 0.00 1.14 0.03 91 1009.0
20260904083704 13 268 11.3 29.0 0.00 1.14 0.03 91 1008.9
20260904083204 13 257 19.3 35.4 0.00 1.14 0.03 91 1008.8
20260904082703 13 267 17.7 27.4 0.00 1.14 0.03 91 1008.5
20260904082204 13 251 16.1 29.0 0.00 1.14 0.03 91 1008.5
20260904081703 13 252 19.3 29.0 0.00 1.17 0.03 91 1008.5
20260904081204 13 255 19.3 32.2 0.00 1.19 0.03 91 1008.2
20260904080704 13 249 14.5 24.1 0.00 1.19 0.03 91 1008.2
20260904075704 13 243 16.1 32.2 0.00 1.19 0.03 91 1008.2
20260904075204 13 254 17.7 25.7 0.00 1.19 0.03 91 1008.2
20260904074703 13 254 19.3 32.2 0.00 1.19 0.03 90 1008.1
20260904074204 13 250 20.9 32.2 0.00 1.19 0.03 90 1008.0
20260904073704 13 252 14.5 29.0 0.00 1.19 0.03 90 1007.9
20260904073204 13 253 11.3 25.7 0.00 1.19 0.03 90 1007.8
20260904072704 13 255 11.3 20.9 0.00 1.19 0.03 90 1007.5
20260904071704 12 238 14.5 24.1 0.00 1.19 0.03 90 1007.6
20260904071204 12 250 11.3 22.5 0.00 1.19 0.03 90 1007.5
20260904070704 12 253 16.1 27.4 0.00 1.19 0.03 90 1007.4
20260904070204 12 257 19.3 27.4 0.00 1.19 0.03 90 1007.3
20260904064203 13 257 12.9 24.1 0.00 1.19 0.03 89 1007.2
20260904063704 13 253 16.1 25.7 0.00 1.19 0.03 89 1007.2
20260904063204 13 254 14.5 20.9 0.00 1.19 0.03 89 1007.1
20260904062704 13 245 11.3 24.1 0.00 1.19 0.03 89 1007.1
20260904062204 13 247 9.7 20.9 0.00 1.19 0.03 89 1007.0
20260904061704 12 239 14.5 20.9 0.00 1.19 0.03 89 1007.1
20260904061204 12 233 11.3 19.3 0.00 1.19 0.03 89 1006.9
20260904060703 12 253 12.9 24.1 0.00 1.22 0.03 89 1006.9
20260904055703 12 254 12.9 20.9 0.00 1.22 0.03 89 1007.0
20260904055204 12 239 11.3 22.5 0.00 1.22 0.03 88 1007.0
20260904054704 13 242 19.3 32.2 0.00 1.22 0.03 88 1007.0
20260904054204 13 245 14.5 20.9 0.00 1.22 0.03 88 1006.9
20260904053705 13 254 11.3 19.3 0.00 1.22 0.03 88 1006.6
20260904053204 13 239 9.7 14.5 0.00 1.22 0.03 88 1006.4
20260904052704 13 256 11.3 22.5 0.00 1.22 0.03 88 1006.4
20260904052205 13 256 8.0 20.9 0.00 1.22 0.03 88 1006.4
20260904051204 13 255 11.3 20.9 0.00 1.22 0.03 88 1006.5
20260904050704 13 246 8.0 16.1 0.00 1.22 0.03 88 1006.4
20260904050204 13 263 12.9 19.3 0.00 1.22 0.03 88 1006.4
20260904045703 13 249 11.3 19.3 0.00 1.22 0.03 88 1006.5
20260904045204 13 238 11.3 19.3 0.00 1.22 0.03 89 1006.4
20260904044704 13 241 11.3 19.3 0.00 1.22 0.03 89 1006.5
20260904043704 13 245 12.9 22.5 0.00 1.22 0.03 90 1006.3
20260904043204 13 253 11.3 19.3 0.00 1.22 0.03 90 1006.3
20260904042705 13 252 9.7 19.3 0.00 1.22 0.03 90 1006.2
20260904042203 12 240 9.7 19.3 0.00 1.22 0.03 90 1006.2
20260904041204 13 234 14.5 19.3 0.00 1.22 0.03 90 1006.2
20260904040703 13 252 14.5 20.9 0.00 1.22 0.03 90 1006.2
20260904040204 13 244 11.3 24.1 0.00 1.22 0.03 90 1006.2
20260904035704 13 234 9.7 22.5 0.00 1.22 0.03 90 1006.1
20260904035205 12 249 12.9 20.9 0.00 1.22 0.03 90 1005.9
20260904034704 12 257 11.3 20.9 0.00 1.22 0.03 90 1006.0
20260904034204 12 234 9.7 19.3 0.00 1.24 0.03 90 1006.0
20260904033704 13 235 9.7 19.3 0.00 1.24 0.03 90 1005.8
20260904033204 13 243 12.9 22.5 0.00 1.24 0.03 90 1005.8
20260904032704 13 240 9.7 19.3 0.00 1.24 0.03 90 1005.8
20260904032204 13 242 14.5 19.3 0.00 1.24 0.03 90 1005.9
20260904031704 13 238 9.7 19.3 0.00 1.24 0.03 90 1005.8
20260904031204 13 242 11.3 19.3 0.00 1.24 0.03 90 1005.9
20260904025705 13 262 12.9 24.1 0.03 1.24 0.03 91 1005.6
20260904025203 12 233 12.9 20.9 0.03 1.24 0.03 91 1005.6
20260904024704 12 244 8.0 19.3 0.03 1.24 0.03 90 1005.6
20260904024204 12 243 8.0 19.3 0.03 1.24 0.03 90 1005.5
20260904023704 12 238 9.7 24.1 0.03 1.24 0.03 90 1005.4
20260904023204 12 246 11.3 19.3 0.03 1.24 0.03 90 1005.7
20260904022704 12 244 11.3 22.5 0.03 1.24 0.03 90 1005.6
20260904022205 12 240 14.5 27.4 0.03 1.24 0.03 90 1005.9
20260904021704 12 256 12.9 24.1 0.03 1.24 0.03 90 1005.6
20260904021204 12 248 12.9 29.0 0.03 1.24 0.03 90 1005.6
20260904020704 12 241 17.7 27.4 0.03 1.24 0.03 90 1005.8
20260904020204 12 252 14.5 24.1 0.00 1.22 0.00 90 1005.9
20260904015704 12 243 14.5 29.0 0.00 1.22 0.00 90 1005.8
20260904015204 13 255 14.5 24.1 0.00 1.22 0.00 90 1005.9
20260904014704 13 241 16.1 27.4 0.00 1.24 0.00 90 1005.9
20260904013704 13 250 9.7 19.3 0.00 1.27 0.00 90 1006.1
20260904013204 13 271 8.0 16.1 0.00 1.30 0.00 90 1005.8
20260904012704 13 240 8.0 14.5 0.00 1.30 0.00 91 1005.9
20260904011704 13 248 12.9 19.3 0.00 1.30 0.00 91 1006.0
20260904011204 13 265 14.5 19.3 0.00 1.30 0.00 91 1005.9
20260904010705 13 245 11.3 19.3 0.00 1.30 0.00 91 1005.8
20260904005704 13 249 11.3 19.3 0.00 1.30 0.00 92 1005.9
20260904005204 13 249 11.3 22.5 0.00 1.30 0.00 92 1006.1
20260904004704 13 244 11.3 22.5 0.00 1.30 0.00 93 1006.0
20260904004203 13 260 14.5 20.9 0.00 1.30 0.00 93 1005.9
20260904003703 13 247 11.3 22.5 0.00 1.30 0.00 93 1006.0
20260904003204 13 245 11.3 20.9 0.00 1.30 0.00 93 1006.1
20260904002704 13 251 8.0 16.1 0.00 1.30 0.00 93 1006.1
20260904002203 13 247 8.0 16.1 0.00 1.30 0.00 94 1006.3
20260904001704 13 251 8.0 16.1 0.00 1.30 0.00 94 1006.2
20260904000704 13 259 8.0 12.9 0.00 1.30 0.00 94 1006.2
20260904000204 13 253 9.7 14.5 0.00 1.30 0.00 94 1006.5
20260903235705 13 247 11.3 16.1 0.00 1.30 0.00 94 1006.3
20260903235204 13 257 8.0 16.1 0.00 1.30 0.00 94 1006.3
20260903234704 13 246 6.4 12.9 0.00 1.30 0.00 94 1006.0
20260903234204 13 248 8.0 14.5 0.00 1.30 0.00 94 1006.0
20260903233205 13 245 9.7 16.1 0.00 1.30 0.00 95 1006.4
20260903232204 13 241 8.0 14.5 0.00 1.30 0.00 95 1005.9
20260903231204 13 253 8.0 16.1 0.00 1.30 0.00 95 1006.2
20260903230704 13 241 8.0 11.3 0.00 1.30 0.00 95 1006.2
20260903230204 13 246 8.0 16.1 0.00 1.30 0.00 95 1006.2
20260903225204 13 242 9.7 19.3 0.00 1.30 1.22 96 1006.1
20260903224704 13 242 8.0 14.5 0.00 1.30 1.22 96 1006.0
20260903223703 13 252 11.3 20.9 0.00 1.30 1.22 96 1006.2
20260903223204 13 245 9.7 16.1 0.00 1.32 1.22 96 1006.4
20260903222204 13 254 9.7 16.1 0.18 1.32 1.22 96 1006.5
20260903221703 13 246 6.4 11.3 0.43 1.32 1.22 96 1006.5
20260903221205 13 252 9.7 12.9 0.51 1.32 1.22 96 1006.5
20260903220704 13 239 8.0 16.1 0.56 1.32 1.22 96 1006.8
20260903220204 13 246 8.0 12.9 0.61 1.32 1.22 96 1006.4
20260903215703 13 257 8.0 19.3 0.61 1.35 1.22 96 1006.3
20260903215203 13 242 8.0 19.3 0.61 1.35 1.22 96 1006.3
20260903214704 13 241 8.0 19.3 0.61 1.35 1.22 96 1006.4
20260903213704 13 250 12.9 20.9 0.61 1.35 1.22 95 1006.5
20260903213203 13 251 11.3 20.9 0.61 1.35 1.22 95 1006.5
20260903212704 13 261 9.7 22.5 0.58 1.30 1.17 95 1006.6
20260903212204 13 267 12.9 20.9 0.43 1.17 1.04 95 1006.6
20260903211703 14 263 9.7 20.9 0.18 0.89 0.79 96 1006.6
20260903211204 14 234 8.0 20.9 0.10 0.81 0.71 96 1006.4
20260903210704 14 236 8.0 16.1 0.05 0.79 0.66 95 1006.4
20260903205704 14 201 9.7 19.3 0.00 0.71 0.61 95 1006.5
20260903205204 14 224 11.3 19.3 0.00 0.71 0.61 95 1006.5
20260903204704 14 220 16.1 25.7 0.00 0.71 0.61 96 1006.4
20260903204204 14 223 16.1 27.4 0.00 0.71 0.61 96 1006.3
20260903203704 14 226 9.7 20.9 0.00 0.71 0.61 96 1006.3
20260903202705 14 235 11.3 22.5 0.00 0.71 0.61 95 1006.4
20260903202205 14 221 11.3 19.3 0.00 0.71 0.61 95 1006.5
20260903201704 14 218 11.3 19.3 0.00 0.71 0.61 95 1006.5
20260903200704 14 219 11.3 24.1 0.00 0.71 0.61 95 1006.3
20260903200203 14 226 14.5 19.3 0.00 0.71 0.61 95 1006.4